Location: Lafig�re
(44.4503°N, 4.0357°E)
Time: 14:52:48
(UTC+00:00)

Vanguard 2 Rocket - Pass Details

Date: 27 June 2021
Orbit: 555 x 3325 km, 32.9° (Epoch: 28 July)

Event Time Altitude Azimuth Distance (km) Brightness Sun altitude
Rises 00:01:34 0° 277° (W) 6,917 11.4 -22.1°
Reaches altitude 10° 00:09:18 10° 260° (W) 5,401 10.7 -22.0°
Maximum altitude 00:16:38 15° 231° (SW) 4,335 9.9 -21.9°
Enters shadow 00:17:10 15° 228° (SW) 4,288 9.9 -21.9°
